Total_Precipitation_Accumulation
0.03 0.06 0.11 0.14 0.15 0.12 0.08 0.05 0.07 0.10 0.18 0.16 0.19 0.21 0.26 0.23 0.20 0.14 0.12 0.11 0.12 0.15 0.22 0.22 0.23 0.26 0.28 0.34 0.43 0.51 0.56 0.61 0.66 0.69 0.68 0.59 0.54 0.54 0.55 0.57 0.59 0.68 0.71 0.65
0.03 0.06 0.10 0.12 0.13 0.10 0.07 0.05 0.05 0.06 0.09 0.11 0.15 0.19 0.21 0.18 0.19 0.20 0.21 0.19 0.19 0.21 0.27 0.26 0.25 0.27 0.30 0.36 0.42 0.46 0.53 0.57 0.63 0.72 0.74 0.68 0.65 0.69 0.73 0.76 0.83 0.88 0.85 0.81
0.04 0.07 0.09 0.15 0.12 0.08 0.08 0.07 0.07 0.09 0.10 0.13 0.16 0.25 0.29 0.26 0.29 0.27 0.23 0.17 0.17 0.22 0.25 0.25 0.22 0.21 0.26 0.31 0.40 0.49 0.60 0.70 0.75 0.81 0.86 0.84 0.84 0.88 0.89 0.89 0.89 0.91 0.88 0.85
0.09 0.10 0.15 0.14 0.11 0.10 0.10 0.10 0.14 0.16 0.15 0.17 0.21 0.25 0.28 0.29 0.28 0.30 0.29 0.29 0.28 0.29 0.34 0.34 0.27 0.27 0.33 0.41 0.50 0.58 0.63 0.70 0.77 0.86 0.93 0.99 1.08 1.11 1.13 1.14 1.10 1.05 0.97 0.93
0.16 0.14 0.16 0.18 0.16 0.16 0.17 0.19 0.19 0.26 0.30 0.29 0.27 0.26 0.31 0.34 0.32 0.37 0.34 0.31 0.37 0.42 0.46 0.42 0.41 0.39 0.47 0.59 0.69 0.74 0.76 0.82 0.88 0.95 1.04 1.11 1.15 1.18 1.22 1.26 1.19 1.13 1.08 1.05
0.24 0.25 0.25 0.23 0.25 0.20 0.21 0.34 0.31 0.34 0.38 0.40 0.41 0.49 0.56 0.56 0.45 0.42 0.43 0.40 0.45 0.46 0.45 0.50 0.55 0.58 0.61 0.68 0.79 0.88 0.90 0.90 0.92 1.05 1.11 1.13 1.12 1.14 1.14 1.15 1.07 1.02 1.00 1.03
0.34 0.33 0.28 0.25 0.26 0.28 0.44 0.61 0.60 0.63 0.58 0.49 0.55 0.57 0.55 0.50 0.51 0.45 0.48 0.55 0.52 0.51 0.53 0.55 0.54 0.57 0.64 0.72 0.82 0.87 0.89 0.90 0.94 1.02 1.12 1.11 1.12 1.08 1.02 0.96 0.94 0.94 0.94 0.95
0.53 0.59 0.55 0.40 0.41 0.55 0.66 0.61 0.71 0.63 0.55 0.52 0.51 0.50 0.45 0.45 0.52 0.54 0.54 0.58 0.55 0.49 0.45 0.46 0.50 0.54 0.63 0.71 0.72 0.76 0.78 0.79 0.83 0.84 0.86 0.90 0.97 0.96 0.91 0.91 0.90 0.90 0.96 0.99
0.68 0.68 0.61 0.53 0.55 0.57 0.50 0.47 0.50 0.47 0.42 0.43 0.44 0.42 0.36 0.35 0.40 0.42 0.45 0.49 0.48 0.49 0.47 0.49 0.53 0.59 0.64 0.65 0.66 0.67 0.73 0.75 0.75 0.73 0.78 0.85 0.86 0.81 0.75 0.74 0.72 0.75 0.91 1.03
0.85 0.82 0.71 0.58 0.46 0.45 0.43 0.42 0.41 0.43 0.46 0.46 0.42 0.38 0.36 0.34 0.35 0.41 0.46 0.45 0.44 0.46 0.49 0.58 0.64 0.69 0.66 0.61 0.63 0.68 0.72 0.71 0.72 0.74 0.71 0.71 0.75 0.72 0.68 0.64 0.61 0.65 0.84 0.99
1.08 1.13 0.96 0.78 0.64 0.56 0.51 0.50 0.45 0.47 0.49 0.52 0.50 0.47 0.46 0.38 0.35 0.34 0.37 0.36 0.37 0.45 0.50 0.57 0.61 0.65 0.67 0.63 0.64 0.66 0.65 0.61 0.59 0.60 0.60 0.58 0.63 0.67 0.60 0.59 0.55 0.55 0.71 0.94
1.12 1.07 1.06 0.95 0.75 0.66 0.62 0.64 0.57 0.57 0.58 0.56 0.54 0.53 0.50 0.46 0.37 0.31 0.30 0.33 0.38 0.43 0.49 0.53 0.55 0.59 0.59 0.57 0.63 0.68 0.68 0.60 0.53 0.51 0.53 0.54 0.58 0.60 0.54 0.42 0.37 0.32 0.36 0.49
0.79 0.83 0.88 0.81 0.72 0.61 0.62 0.61 0.64 0.63 0.61 0.57 0.54 0.49 0.43 0.41 0.40 0.35 0.35 0.36 0.42 0.46 0.49 0.50 0.50 0.51 0.50 0.56 0.64 0.67 0.67 0.61 0.53 0.47 0.45 0.44 0.46 0.51 0.54 0.48 0.30 0.23 0.19 0.22
0.75 0.71 0.78 0.75 0.69 0.57 0.57 0.50 0.49 0.50 0.49 0.49 0.50 0.46 0.43 0.41 0.43 0.43 0.45 0.48 0.55 0.58 0.54 0.50 0.47 0.44 0.40 0.46 0.51 0.50 0.47 0.45 0.42 0.39 0.39 0.39 0.41 0.44 0.47 0.53 0.53 0.43 0.27 0.19
0.68 0.66 0.76 0.72 0.62 0.55 0.55 0.50 0.43 0.38 0.38 0.43 0.45 0.43 0.40 0.42 0.47 0.53 0.56 0.64 0.69 0.64 0.56 0.52 0.48 0.43 0.39 0.43 0.47 0.46 0.46 0.41 0.36 0.34 0.35 0.37 0.40 0.40 0.41 0.46 0.56 0.63 0.57 0.33
0.65 0.64 0.67 0.67 0.69 0.65 0.58 0.53 0.48 0.43 0.39 0.40 0.41 0.39 0.37 0.37 0.44 0.52 0.58 0.68 0.77 0.76 0.65 0.58 0.50 0.41 0.37 0.41 0.41 0.37 0.35 0.31 0.27 0.25 0.26 0.31 0.34 0.35 0.39 0.50 0.60 0.72 0.74 0.50
0.70 0.67 0.60 0.60 0.65 0.65 0.59 0.52 0.49 0.46 0.42 0.42 0.41 0.39 0.38 0.39 0.47 0.58 0.62 0.60 0.62 0.63 0.63 0.59 0.47 0.36 0.32 0.35 0.34 0.32 0.29 0.25 0.20 0.18 0.22 0.25 0.29 0.33 0.38 0.50 0.63 0.72 0.67 0.44
0.58 0.52 0.49 0.48 0.51 0.51 0.52 0.50 0.49 0.45 0.41 0.40 0.39 0.37 0.34 0.35 0.48 0.62 0.67 0.66 0.58 0.51 0.51 0.49 0.38 0.30 0.30 0.30 0.30 0.30 0.24 0.21 0.19 0.19 0.22 0.25 0.26 0.34 0.42 0.55 0.66 0.72 0.61 0.42
0.49 0.45 0.43 0.40 0.38 0.39 0.42 0.44 0.45 0.43 0.37 0.32 0.29 0.27 0.23 0.26 0.40 0.54 0.60 0.70 0.76 0.70 0.57 0.45 0.33 0.27 0.26 0.24 0.23 0.25 0.22 0.20 0.19 0.20 0.23 0.21 0.26 0.35 0.41 0.50 0.62 0.69 0.60 0.54
0.47 0.44 0.38 0.35 0.32 0.31 0.32 0.33 0.34 0.34 0.31 0.26 0.22 0.20 0.18 0.21 0.34 0.47 0.55 0.65 0.76 0.74 0.64 0.50 0.31 0.23 0.21 0.21 0.23 0.21 0.20 0.20 0.19 0.20 0.21 0.23 0.28 0.34 0.37 0.43 0.54 0.62 0.60 0.65
0.46 0.41 0.34 0.29 0.26 0.24 0.24 0.23 0.22 0.22 0.22 0.20 0.19 0.17 0.15 0.17 0.24 0.38 0.61 0.75 0.65 0.57 0.56 0.55 0.34 0.20 0.16 0.18 0.24 0.24 0.22 0.22 0.21 0.22 0.23 0.25 0.29 0.34 0.41 0.47 0.53 0.58 0.64 0.68
0.41 0.38 0.32 0.25 0.20 0.20 0.19 0.16 0.15 0.14 0.14 0.13 0.13 0.12 0.13 0.15 0.21 0.30 0.45 0.62 0.60 0.55 0.43 0.41 0.33 0.18 0.13 0.12 0.13 0.18 0.22 0.26 0.28 0.30 0.31 0.32 0.35 0.40 0.46 0.49 0.52 0.56 0.62 0.70
0.38 0.38 0.34 0.25 0.18 0.15 0.14 0.15 0.13 0.11 0.11 0.10 0.11 0.11 0.11 0.13 0.19 0.35 0.45 0.41 0.44 0.46 0.32 0.28 0.29 0.21 0.14 0.12 0.13 0.16 0.19 0.24 0.28 0.30 0.30 0.32 0.36 0.40 0.46 0.49 0.52 0.55 0.65 0.70
0.31 0.29 0.28 0.26 0.22 0.17 0.16 0.17 0.15 0.12 0.11 0.12 0.13 0.13 0.13 0.14 0.17 0.23 0.32 0.37 0.41 0.44 0.34 0.32 0.28 0.23 0.19 0.18 0.21 0.22 0.22 0.24 0.25 0.26 0.27 0.31 0.36 0.42 0.51 0.58 0.60 0.60 0.63 0.62
0.24 0.21 0.22 0.24 0.22 0.18 0.15 0.14 0.15 0.14 0.13 0.14 0.17 0.18 0.16 0.16 0.21 0.26 0.30 0.34 0.39 0.39 0.36 0.36 0.33 0.31 0.27 0.30 0.33 0.33 0.31 0.31 0.31 0.31 0.32 0.36 0.44 0.52 0.58 0.62 0.61 0.57 0.55 0.54
0.15 0.14 0.14 0.13 0.12 0.12 0.12 0.12 0.14 0.15 0.15 0.18 0.20 0.21 0.19 0.18 0.23 0.31 0.40 0.41 0.40 0.40 0.36 0.32 0.30 0.31 0.30 0.35 0.41 0.43 0.41 0.39 0.39 0.39 0.42 0.48 0.54 0.60 0.58 0.51 0.49 0.48 0.46 0.44
0.12 0.11 0.11 0.11 0.11 0.10 0.11 0.12 0.16 0.21 0.23 0.23 0.25 0.23 0.24 0.28 0.33 0.38 0.40 0.41 0.41 0.39 0.35 0.31 0.28 0.25 0.27 0.31 0.35 0.39 0.41 0.43 0.42 0.43 0.46 0.49 0.50 0.48 0.43 0.39 0.40 0.39 0.36 0.36